Simultaneous Nadir Overpasses (SNOs) Predictions

Prediction of SNOs between GOES-17 and METOP-C Satellite Orbit:

Table of predicted SNOs for the next 14.0 days since TLE Epoch: 9/9/2023
Index Date Time (GOES-17) GOES-17 Lat,Lon METOP-C Lat,Lon Distance(km) Time Diff (sec)
1 09/09/2023 16:36:25 0.00,-104.71 0.49,-107.03 264.12 80
2 09/10/2023 16:18:24 -0.00,-104.71 -0.58,-102.03 305.34 80
3 09/12/2023 04:37:22 0.00,-104.68 -0.46,-106.62 220.80 80
4 09/13/2023 04:14:01 0.00,-104.68 0.67,-101.62 348.63 80
5 09/14/2023 16:32:51 -0.00,-104.71 0.36,-106.18 167.60 80
6 09/15/2023 16:14:50 0.00,-104.71 -0.78,-101.18 402.34 80
7 09/17/2023 04:33:49 -0.00,-104.69 -0.26,-105.77 123.19 80
8 09/18/2023 04:10:28 -0.00,-104.69 0.87,-100.78 446.35 80
9 09/19/2023 16:29:17 -0.00,-104.72 0.13,-105.34 70.19 80
10 09/20/2023 16:11:17 -0.00,-104.72 -1.01,-100.34 499.41 80
11 09/22/2023 04:30:15 0.00,-104.69 -0.03,-104.93 26.68 80
